Simultaneous Nadir Overpasses (SNOs) Predictions

Prediction of SNOs between GOES-17 and METOP-C Satellite Orbit:

Table of predicted SNOs for the next 14.0 days since TLE Epoch: 12/3/2022
Index Date Time (GOES-17) GOES-17 Lat,Lon METOP-C Lat,Lon Distance(km) Time Diff (sec)
1 12/04/2022 06:54:47 -0.01,-137.32 -0.79,-140.64 380.00 80
2 12/05/2022 06:31:29 -0.01,-137.31 0.36,-135.66 188.44 80
3 12/06/2022 18:50:22 0.01,-137.30 0.66,-140.22 332.46 80
4 12/07/2022 18:32:22 0.00,-137.30 -0.43,-135.22 235.56 80
5 12/09/2022 06:51:23 0.00,-137.27 -0.55,-139.82 290.37 80
6 12/10/2022 06:28:03 0.01,-137.26 0.54,-134.82 277.21 80
7 12/11/2022 18:46:57 -0.01,-137.24 0.47,-139.39 244.80 80
8 12/12/2022 18:28:57 -0.00,-137.22 -0.62,-134.39 322.74 80
9 12/14/2022 06:45:16 -0.00,-137.19 -0.42,-138.98 203.75 80
10 12/15/2022 06:27:17 -0.01,-137.17 0.68,-133.98 363.53 80
11 12/16/2022 18:43:30 0.01,-137.15 0.32,-138.55 159.21 80
